Regional Weather Roundup
Issued by NWS

Home | Current Version | Previous Version | Graphics & Text | Print | Product List | Glossary On
Versions: 1 2 3 4 5 6 7 8 9 10 11 12 13 14 15 16 17 18 19 20 21 22 23 24 25 26 27 28 29 30 31 32 33 34 35 36 37 38 39 40 41 42 43 44 45 46 47 48 49 50
000
ASUS45 KTFX 231819
RWRMT
MONTANA HOURLY WEATHER ROUNDUP
NATIONAL WEATHER SERVICE GREAT FALLS MT
1219 PM MDT THU OCT 23 2014

NOTE: "FAIR" INDICATES FEW OR NO CLOUDS BELOW 12000 FEET WITH NO
SIGNIFICANT WEATHER AND/OR OBSTRUCTIONS TO VISIBILITY.

* THESE STATIONS ARE NOT UNDER NWS QUALITY CONTROL. THEY DO NOT
   REPORT WEATHER SUCH AS PRECIPITATION OR FOG.

MTZ001>007-043-231900-
WEST OF THE DIVIDE
CITY           SKY/WX    TMP DP  RH WIND       PRES   REMARKS
KALISPELL      LGT RAIN  48  48 100 SE7       29.83S
MISSOULA       CLOUDY    55  45  69 SE9       29.89F
BUTTE          CLOUDY    52  34  50 S3        30.01F
MULLAN PASS    RAIN      39  39 100 SW9G22    29.87R VSB M1/4 WCI  33
* ESSEX        N/A       45  44  96 N/A        N/A
* LINCOLN      N/A       46  42  86 NW2        N/A
* LOOKOUT PASS N/A       45  43  93 S6G12      N/A
* POLSON       N/A       49  49 100 S1G6       N/A
* RONAN APT    PTSUNNY   55  45  69 SE10G18    N/A
* SEELEY LAKE  N/A       46  44  93 SE2        N/A
* THOMP F APT  CLOUDY    46  22  39 SW3        N/A
$$

MTZ008-052>055-231900-
SOUTHWEST MONTANA
CITY           SKY/WX    TMP DP  RH WIND       PRES   REMARKS
BOZEMAN        CLOUDY    57  34  42 W3        29.99S
DILLON         PTSUNNY   57  32  39 W7        30.03S
W YELLOWSTONE  CLOUDY    48  25  41 S14       30.14F
* THREE FORKS  CLOUDY    63  39  41 S22G32     N/A
* BOULDER HILL N/A       53  32  45 S19G26     N/A
* MONIDA PASS  N/A       45  24  44 SE16G22    N/A
* RAYNOLDS PAS N/A       46  32  58 S8         N/A
* WHITEHALL    N/A       56  32  40 SW15G23    N/A
* WISE RIVER   N/A       46  41  83 NW4G9      N/A
$$

MTZ009>010-012-014-046-048-049-054-231900-
EAST SLOPES AND CENTRAL MONTANA
CITY           SKY/WX    TMP DP  RH WIND       PRES   REMARKS
CUT BANK       PTSUNNY   59  39  48 SW7       29.77F
GREAT FALLS    CLOUDY    57  37  47 SW22G29   29.82F
HELENA         CLOUDY    63  36  37 VRB3      29.91F
MALMSTROM AFB  CLOUDY    59  37  44 SW21G29   29.84F
* CONRAD       CLOUDY    57  45  64 SE11G18    N/A
* DEARBORN     N/A       59  37  44 S12G30     N/A
* EAST GLACIER N/A       43  40  89 W22G29     N/A
* MONARCH      N/A       53  23  31 SW17G32    N/A
* PENDROY      N/A       56  38  51 SW16       N/A
* ROGERS PASS  N/A       46  38  74 SE19G35    N/A
* SAINT MARY   N/A       45  38  77 S9G18      N/A
* SWEET GRASS  N/A       59  36  42 SW32G42    N/A
* WHITE SULPH  N/A       54  33  45 SW15G22    N/A
$$

MTZ011-013-016-021-035-040-045-047-050-051-231900-
NORTH CENTRAL MONTANA
CITY           SKY/WX    TMP DP  RH WIND       PRES   REMARKS
HAVRE          CLOUDY    63  39  41 SW14      29.77S
LEWISTOWN      CLOUDY    64  34  33 W21G33    29.86F
* CHINOOK      CLOUDY    63  37  38 W17G24    29.75R
* FORT BENTON  CLOUDY    61  36  39 S15G23    29.80S
* CHESTER      N/A       57  39  51 SW10G17    N/A
* DENTON       N/A       61  34  36 W10G19     N/A
* GEYSER       N/A       59  32  36 W20G32     N/A
* JUDITH GAP   N/A       58  34  41 SW24G40    N/A
* LOMA         N/A       62  35  37 S18G29     N/A
$$

MTZ017>020-022>027-061-062-231900-
NORTHEAST MONTANA
CITY           SKY/WX    TMP DP  RH WIND       PRES   REMARKS
GLASGOW        PTSUNNY   59  37  44 S6        29.78F
GLENDIVE       CLOUDY    55  30  39 S12       29.86F
JORDAN         PTCLDY    66  32  28 W14       29.81F
SIDNEY         PTSUNNY   57  34  42 S15       29.82F
WOLF POINT     CLOUDY    52  36  55 CALM      29.80F
* BEAVER HILL  N/A       59  30  33 SW16       N/A
* CIRCLE       N/A       59  37  44 SW4G11     N/A
* LINDSAY DVD  N/A       60  29  31 SW14G20    N/A
* NAVAJO       N/A       57  32  39 SW13G18    N/A
$$

MTZ028>042-056>058-231900-
SOUTHCENTRAL AND SOUTHEAST MONTANA
CITY           SKY/WX    TMP DP  RH WIND       PRES   REMARKS
BAKER          PTSUNNY   64  28  26 W12       29.89F
BILLINGS       PTSUNNY   64  27  25 SW13      29.90S
LIVINGSTON     CLOUDY    64  27  25 SW33G43   29.94F
MILES CITY     PTCLDY    59  32  36 SE7       29.88S
* LAUREL APT   PTSUNNY   64  27  25 S9         N/A
* ROUNDUP APT  PTSUNNY   61  30  31 S11G17     N/A
* ALZADA       N/A       64  24  22 S6         N/A
* HYSHAM       N/A       60  28  30 W6G11      N/A
* LAME DEER    N/A       63  27  26 SW12       N/A
* REED POINT   N/A       60  34  38 W2         N/A
* ROSCOE HILL  N/A       62  24  23 W3G12      N/A
$$

REGIONAL REPORTS...DAKOTAS
CITY           SKY/WX    TMP DP  RH WIND       PRES   REMARKS
WILLISTON      PTCLDY    57  34  42 SW10      29.81F
DICKINSON      PTCLDY    66  32  28 SW14      29.85F
BEACH          N/A       63  28  27 SW12      29.87F
CROSBY         SUNNY     57  36  46 S13       29.78F
TIOGA          SUNNY     55  32  42 SW12      29.83F
BISMARCK       SUNNY     66  34  31 SW9       29.88F
GRAND FORKS    SUNNY     66  39  37 SW10G18   29.84F
FARGO          SUNNY     63  46  54 S14       29.90F
BUFFALO SD     PTSUNNY   66  28  24 S10       29.85S
RAPID CITY     PTSUNNY   63  30  29 SE6       29.95F
$$

REGIONAL REPORTS...WYOMING/IDAHO/WASHINGTON
CITY           SKY/WX    TMP DP  RH WIND       PRES   REMARKS
GILLETTE       CLOUDY    64  25  23 SW13      29.95S
SHERIDAN       PTSUNNY   64  30  28 NE5       29.92F
CODY           PTSUNNY   66  48  52 W12G21    29.97F
YELLOWSTONE LA PTCLDY    48  25  41 VRB7      30.18F
SALMON         CLOUDY    61  37  41 S13       30.00F
MULLAN PASS    RAIN      39  39 100 SW9G22    29.87S VSB M1/4 WCI  33
SAND POINT     N/A       50  50 100 SW3       29.79F
SPOKANE        LGT RAIN  54  50  86 S15G21    29.80R
$$

REGIONAL REPORTS...ALBERTA
CITY           SKY/WX    TMP DP  RH WIND       PRES   REMARKS
CALGARY        SUNNY     57  34  42 N7        29.55R
LETHBRIDGE     PTSUNNY   61  37  41 SW24G41   29.67R
MEDICINE HAT   PTSUNNY   61  41  48 SW22G32   29.66S
EDMONTON       PTSUNNY   52  34  50 W5        29.41S
WATERTON GATE  N/A       45  39  80 SW18G30    N/A
CARDSTON       N/A       57  39  51 SW9G18     N/A
MILK RIVER     N/A       59  37  44 SW26G36    N/A
$$

REGIONAL REPORTS...SASKATCHEWAN
CITY           SKY/WX    TMP DP  RH WIND       PRES   REMARKS
SWIFT CURRENT  PTSUNNY   55  39  55 SW17G23   29.66F
MOOSE JAW      CLOUDY    55  37  51 CALM      29.69F
REGINA         PTSUNNY   50  43  77 S8        29.70F
VAL MARIE      N/A       55  39  55 SW13       N/A
ASSINIBOIA     N/A       57  36  46 SW16G23    N/A
CORONACH       N/A       57  36  46 SW14       N/A

$$




USA.gov is the U.S. government's official web portal to all federal, state and local government web resources and services.